TimeAKST,TemperatureF,Dew PointF,Humidity,Sea Level PressureIn,VisibilityMPH,Wind Direction,Wind SpeedMPH,Gust SpeedMPH,PrecipitationIn,Events,Conditions,WindDirDegrees,DateUTC
12:03 AM,-14.8,-18.4,84,29.94,2.5,NE,11.5,-,N/A,,Overcast,50,2013-02-03 09:03:00
12:21 AM,-14.8,-18.4,84,29.94,4.0,NE,10.4,-,N/A,,Overcast,40,2013-02-03 09:21:00
12:44 AM,-14.8,-18.4,84,29.93,-9999.0,North,-9999.0,-,N/A,,Unknown,0,2013-02-03 09:44:00
12:53 AM,-15.0,-18.9,82,29.94,7.0,NE,15.0,-,N/A,,Unknown,40,2013-02-03 09:53:00
1:53 AM,-14.1,-18.0,82,29.93,8.0,NE,17.3,-,N/A,,Clear,40,2013-02-03 10:53:00
3:53 AM,-11.9,-16.1,82,29.91,4.0,NE,18.4,155.4,N/A,,Mist,50,2013-02-03 12:53:00
4:53 AM,-11.0,-15.0,83,29.91,3.0,NE,17.3,-,N/A,,Partly Cloudy,50,2013-02-03 13:53:00
5:00 AM,-11.2,-14.8,84,29.90,2.5,NE,18.4,-,N/A,,Scattered Clouds,50,2013-02-03 14:00:00
5:08 AM,-11.2,-14.8,84,29.90,4.0,NE,19.6,-,N/A,,Scattered Clouds,50,2013-02-03 14:08:00
5:19 AM,-11.2,-14.8,84,29.90,2.0,NE,19.6,-,N/A,,Scattered Clouds,50,2013-02-03 14:19:00
5:40 AM,-11.2,-14.8,84,29.90,2.5,NE,15.0,-,N/A,,Mostly Cloudy,50,2013-02-03 14:40:00
5:49 AM,-11.2,-14.8,84,29.90,3.0,NE,18.4,-,N/A,,Mostly Cloudy,50,2013-02-03 14:49:00
5:53 AM,-11.0,-15.0,83,29.90,3.0,NE,18.4,-,N/A,,Overcast,50,2013-02-03 14:53:00
6:17 AM,-11.2,-14.8,84,29.89,2.5,NE,20.7,-,N/A,,Overcast,50,2013-02-03 15:17:00
6:33 AM,-11.2,-14.8,84,29.90,2.5,NE,18.4,-,N/A,,Overcast,50,2013-02-03 15:33:00
6:41 AM,-11.2,-14.8,84,29.89,4.0,NE,17.3,-,N/A,,Overcast,50,2013-02-03 15:41:00
6:53 AM,-11.0,-15.0,83,29.90,3.0,NE,18.4,-,N/A,,Overcast,50,2013-02-03 15:53:00
7:00 AM,-11.2,-14.8,84,29.89,2.5,NE,20.7,-,N/A,,Overcast,50,2013-02-03 16:00:00
7:11 AM,-11.2,-14.8,84,29.89,3.0,NE,21.9,28.8,N/A,,Mostly Cloudy,50,2013-02-03 16:11:00
7:20 AM,-11.2,-14.8,84,29.89,2.5,NE,20.7,-,N/A,,Mostly Cloudy,50,2013-02-03 16:20:00
7:36 AM,-11.2,-14.8,84,29.89,1.8,NE,21.9,28.8,N/A,,Mostly Cloudy,50,2013-02-03 16:36:00
7:42 AM,-11.2,-14.8,84,29.89,3.0,NE,21.9,-,N/A,,Mostly Cloudy,50,2013-02-03 16:42:00
7:53 AM,-11.0,-15.0,83,29.89,3.0,NE,19.6,-,N/A,,Overcast,50,2013-02-03 16:53:00
8:25 AM,-11.2,-14.8,84,29.89,2.0,NE,20.7,-,N/A,,Partly Cloudy,50,2013-02-03 17:25:00
8:37 AM,-11.2,-14.8,84,29.89,3.0,NE,21.9,-,N/A,,Clear,50,2013-02-03 17:37:00
8:48 AM,-11.2,-14.8,84,29.89,2.0,NE,23.0,29.9,N/A,,Clear,50,2013-02-03 17:48:00
8:53 AM,-11.0,-15.0,83,29.89,2.5,NE,20.7,29.9,N/A,,Partly Cloudy,50,2013-02-03 17:53:00
9:02 AM,-11.2,-14.8,84,29.89,5.0,NE,19.6,-,N/A,,Partly Cloudy,50,2013-02-03 18:02:00
9:09 AM,-11.2,-14.8,84,29.89,4.0,NE,19.6,-,N/A,,Mostly Cloudy,50,2013-02-03 18:09:00
9:53 AM,-11.0,-15.0,83,29.91,2.5,NE,20.7,-,N/A,,Overcast,50,2013-02-03 18:53:00
10:06 AM,-11.2,-14.8,84,29.90,3.0,NE,18.4,26.5,N/A,,Overcast,50,2013-02-03 19:06:00
10:16 AM,-11.2,-14.8,84,29.91,2.5,ENE,20.7,26.5,N/A,,Overcast,60,2013-02-03 19:16:00
10:33 AM,-11.2,-14.8,84,29.90,4.0,ENE,17.3,-,N/A,,Overcast,60,2013-02-03 19:33:00
10:46 AM,-11.2,-14.8,84,29.91,2.0,NE,20.7,-,N/A,,Overcast,50,2013-02-03 19:46:00
10:53 AM,-11.0,-15.0,83,29.91,1.5,NE,19.6,-,N/A,,Overcast,50,2013-02-03 19:53:00
11:53 AM,-11.0,-15.0,83,29.92,2.5,NE,19.6,27.6,N/A,,Overcast,50,2013-02-03 20:53:00
12:05 PM,-11.2,-16.6,77,29.91,1.5,NE,23.0,28.8,N/A,,Haze,50,2013-02-03 21:05:00
12:25 PM,-11.2,-14.8,84,29.91,2.0,NE,19.6,-,N/A,,Overcast,50,2013-02-03 21:25:00
12:50 PM,-11.2,-14.8,84,29.91,1.8,NE,19.6,27.6,N/A,,Overcast,50,2013-02-03 21:50:00
12:53 PM,-11.0,-15.0,83,29.92,2.5,NE,18.4,-,N/A,,Overcast,50,2013-02-03 21:53:00
1:17 PM,-11.2,-14.8,84,29.92,4.0,NE,20.7,26.5,N/A,,Mostly Cloudy,50,2013-02-03 22:17:00
1:27 PM,-11.2,-14.8,84,29.92,2.0,NE,18.4,27.6,N/A,,Scattered Clouds,50,2013-02-03 22:27:00
1:39 PM,-11.2,-16.6,77,29.92,4.0,NE,18.4,-,N/A,,Haze,50,2013-02-03 22:39:00
1:53 PM,-11.0,-16.1,78,29.93,3.0,NE,18.4,-,N/A,,Haze,50,2013-02-03 22:53:00
2:28 PM,-11.2,-16.6,77,29.93,2.5,NE,23.0,-,N/A,,Mostly Cloudy,40,2013-02-03 23:28:00
2:49 PM,-11.2,-16.6,77,29.93,1.8,NE,21.9,-,N/A,,Overcast,50,2013-02-03 23:49:00
2:53 PM,-11.9,-16.1,82,29.94,1.5,NE,20.7,-,N/A,,Overcast,50,2013-02-03 23:53:00
3:29 PM,-11.2,-16.6,77,29.94,2.0,NE,18.4,-,N/A,,Haze,50,2013-02-04 00:29:00
3:43 PM,-11.2,-16.6,77,29.94,1.8,NE,20.7,-,N/A,,Haze,40,2013-02-04 00:43:00
3:51 PM,-13.0,-16.6,84,29.94,2.5,NE,20.7,-,N/A,,Overcast,50,2013-02-04 00:51:00
3:53 PM,-13.0,-17.0,82,29.94,2.5,NE,19.6,-,N/A,,Mostly Cloudy,50,2013-02-04 00:53:00
4:29 PM,-13.0,-16.6,84,29.94,3.0,NE,18.4,-,N/A,,Mostly Cloudy,50,2013-02-04 01:29:00
4:53 PM,-14.1,-18.0,82,29.94,4.0,NE,19.6,-,N/A,,Mostly Cloudy,50,2013-02-04 01:53:00
5:53 PM,-15.0,-20.0,78,29.96,6.0,NE,17.3,-,N/A,,Haze,40,2013-02-04 02:53:00
6:53 PM,-16.1,-20.9,79,29.98,6.0,North,-9999.0,-,N/A,,Haze,0,2013-02-04 03:53:00
7:53 PM,-16.1,-20.0,82,29.99,4.0,North,-9999.0,-,N/A,,Partly Cloudy,0,2013-02-04 04:53:00
8:53 PM,-17.0,-20.9,82,30.00,4.0,North,-9999.0,-,N/A,,Clear,0,2013-02-04 05:53:00
9:53 PM,-18.9,-23.1,81,30.02,6.0,North,-9999.0,-,N/A,,Clear,0,2013-02-04 06:53:00
10:53 PM,-20.0,-24.0,82,30.04,7.0,North,-9999.0,-,N/A,,Clear,0,2013-02-04 07:53:00
11:53 PM,-20.0,-25.1,78,30.05,7.0,North,-9999.0,-,N/A,,Clear,0,2013-02-04 08:53:00